Time,TemperatureF,DewpointF,PressureIn,WindDirection,WindDirectionDegrees,WindSpeedMPH,WindSpeedGustMPH,Humidity,HourlyPrecipIn,Conditions,Clouds,dailyrainin,SoftwareType,DateUTC
2013-04-08 00:06:00,63.4,53.8,29.77,SSE,157,6.0,6.0,71,0.00,,,0.00,Wunderground v.1.15,2013-04-08 05:06:00,
2013-04-08 00:10:00,63.4,53.8,29.77,SE,128,6.0,6.0,71,0.00,,,0.00,Wunderground v.1.15,2013-04-08 05:10:00,
2013-04-08 00:16:00,63.2,54.0,29.75,SSE,165,6.0,6.0,72,0.00,,,0.00,Wunderground v.1.15,2013-04-08 05:16:00,
2013-04-08 00:25:00,62.9,54.1,29.75,SSE,166,6.0,6.0,73,0.00,,,0.00,Wunderground v.1.15,2013-04-08 05:25:00,
2013-04-08 00:31:00,62.7,53.9,29.76,SSE,150,5.0,5.0,73,0.00,,,0.00,Wunderground v.1.15,2013-04-08 05:31:00,
2013-04-08 00:41:00,62.7,53.9,29.76,South,173,5.0,5.0,73,0.00,,,0.00,Wunderground v.1.15,2013-04-08 05:41:00,
2013-04-08 00:51:00,62.7,54.3,29.76,South,169,4.0,9.0,74,0.00,,,0.00,Wunderground v.1.15,2013-04-08 05:51:00,
2013-04-08 01:01:00,62.6,54.2,29.75,South,190,5.0,5.0,74,0.00,,,0.00,Wunderground v.1.15,2013-04-08 06:01:00,
2013-04-08 01:11:00,62.4,54.4,29.75,South,169,4.0,4.0,75,0.00,,,0.00,Wunderground v.1.15,2013-04-08 06:11:00,
2013-04-08 01:20:00,62.1,54.1,29.74,SSE,154,5.0,5.0,75,0.00,,,0.00,Wunderground v.1.15,2013-04-08 06:20:00,
2013-04-08 01:26:00,61.8,54.2,29.74,SE,126,4.0,10.0,76,0.00,,,0.00,Wunderground v.1.15,2013-04-08 06:26:00,
2013-04-08 01:36:00,61.5,53.9,29.74,SSE,163,4.0,4.0,76,0.00,,,0.00,Wunderground v.1.15,2013-04-08 06:36:00,
2013-04-08 01:46:00,61.2,53.9,29.74,South,184,3.0,5.0,77,0.00,,,0.00,Wunderground v.1.15,2013-04-08 06:46:00,
2013-04-08 01:55:00,60.9,54.0,29.74,SSE,161,3.0,4.0,78,0.00,,,0.00,Wunderground v.1.15,2013-04-08 06:55:00,
2013-04-08 02:01:00,60.7,54.1,29.74,South,175,3.0,3.0,79,0.00,,,0.00,Wunderground v.1.15,2013-04-08 07:01:00,
2013-04-08 02:11:00,60.7,54.1,29.74,South,183,2.0,3.0,79,0.00,,,0.00,Wunderground v.1.15,2013-04-08 07:11:00,
2013-04-08 02:20:00,60.5,54.0,29.73,South,187,2.0,4.0,79,0.00,,,0.00,Wunderground v.1.15,2013-04-08 07:20:00,
2013-04-08 02:26:00,60.4,53.9,29.73,SSE,164,2.0,4.0,79,0.00,,,0.00,Wunderground v.1.15,2013-04-08 07:26:00,
2013-04-08 02:35:00,59.9,53.7,29.73,SSE,165,2.0,5.0,80,0.00,,,0.00,Wunderground v.1.15,2013-04-08 07:35:00,
2013-04-08 02:41:00,59.8,53.6,29.73,West,264,1.0,2.0,80,0.00,,,0.00,Wunderground v.1.15,2013-04-08 07:41:00,
2013-04-08 02:51:00,59.5,53.3,29.72,South,187,2.0,2.0,80,0.00,,,0.00,Wunderground v.1.15,2013-04-08 07:51:00,
2013-04-08 03:01:00,59.3,53.5,29.71,South,182,2.0,2.0,81,0.00,,,0.00,Wunderground v.1.15,2013-04-08 08:01:00,
2013-04-08 03:11:00,59.0,53.2,29.71,South,169,2.0,2.0,81,0.00,,,0.00,Wunderground v.1.15,2013-04-08 08:11:00,
2013-04-08 03:20:00,58.9,53.4,29.71,ESE,115,2.0,2.0,82,0.00,,,0.00,Wunderground v.1.15,2013-04-08 08:20:00,
2013-04-08 03:26:00,59.0,53.5,29.71,SSE,155,2.0,2.0,82,0.00,,,0.00,Wunderground v.1.15,2013-04-08 08:26:00,
2013-04-08 03:36:00,58.9,53.4,29.71,SE,128,1.0,4.0,82,0.00,,,0.00,Wunderground v.1.15,2013-04-08 08:36:00,
2013-04-08 03:45:00,58.9,53.4,29.71,SE,140,2.0,2.0,82,0.00,,,0.00,Wunderground v.1.15,2013-04-08 08:45:00,
2013-04-08 03:51:00,58.9,53.4,29.71,South,188,1.0,3.0,82,0.00,,,0.00,Wunderground v.1.15,2013-04-08 08:51:00,
2013-04-08 04:01:00,58.7,53.2,29.71,SW,223,1.0,2.0,82,0.00,,,0.00,Wunderground v.1.15,2013-04-08 09:01:00,
2013-04-08 04:11:00,58.6,53.1,29.71,SSE,148,0.0,0.0,82,0.00,,,0.00,Wunderground v.1.15,2013-04-08 09:11:00,
2013-04-08 04:21:00,58.6,53.1,29.71,SSE,148,0.0,2.0,82,0.00,,,0.00,Wunderground v.1.15,2013-04-08 09:21:00,
2013-04-08 04:30:00,58.6,53.1,29.71,SSE,148,0.0,0.0,82,0.00,,,0.00,Wunderground v.1.15,2013-04-08 09:30:00,
2013-04-08 04:36:00,58.6,53.5,29.71,SSE,148,0.0,0.0,83,0.00,,,0.00,Wunderground v.1.15,2013-04-08 09:36:00,
2013-04-08 04:46:00,58.7,53.5,29.72,SSE,148,0.0,0.0,83,0.00,,,0.00,Wunderground v.1.15,2013-04-08 09:46:00,
2013-04-08 05:01:00,59.3,53.8,29.71,SE,131,1.0,2.0,82,0.00,,,0.00,Wunderground v.1.15,2013-04-08 10:01:00,
2013-04-08 05:11:00,59.2,53.4,29.71,SE,131,1.0,1.0,81,0.00,,,0.00,Wunderground v.1.15,2013-04-08 10:11:00,
2013-04-08 05:20:00,59.2,53.4,29.70,SSE,166,2.0,2.0,81,0.00,,,0.00,Wunderground v.1.15,2013-04-08 10:20:00,
2013-04-08 05:26:00,59.2,53.4,29.70,South,183,2.0,2.0,81,0.00,,,0.00,Wunderground v.1.15,2013-04-08 10:26:00,
2013-04-08 05:35:00,59.2,53.4,29.71,SE,142,1.0,4.0,81,0.00,,,0.00,Wunderground v.1.15,2013-04-08 10:35:00,
2013-04-08 05:40:00,59.3,53.5,29.71,SE,135,2.0,3.0,81,0.00,,,0.00,Wunderground v.1.15,2013-04-08 10:40:00,
2013-04-08 05:51:00,59.3,53.5,29.71,SSE,165,2.0,2.0,81,0.00,,,0.00,Wunderground v.1.15,2013-04-08 10:51:00,
2013-04-08 06:01:00,59.6,53.4,29.71,SSW,196,2.0,3.0,80,0.00,,,0.00,Wunderground v.1.15,2013-04-08 11:01:00,
2013-04-08 06:10:00,59.9,53.4,29.71,SE,129,3.0,3.0,79,0.00,,,0.00,Wunderground v.1.15,2013-04-08 11:10:00,
2013-04-08 06:16:00,60.1,53.6,29.70,ESE,121,3.0,7.0,79,0.00,,,0.00,Wunderground v.1.15,2013-04-08 11:16:00,
2013-04-08 06:26:00,60.5,53.6,29.70,SE,137,5.0,5.0,78,0.00,,,0.00,Wunderground v.1.15,2013-04-08 11:26:00,
2013-04-08 06:35:00,60.2,53.7,29.68,WNW,286,3.0,5.0,79,0.00,,,0.00,Wunderground v.1.15,2013-04-08 11:35:00,
2013-04-08 06:41:00,60.2,53.7,29.68,WNW,286,1.0,1.0,79,0.00,,,0.00,Wunderground v.1.15,2013-04-08 11:41:00,
2013-04-08 06:51:00,60.1,53.6,29.71,WNW,284,0.0,0.0,79,0.00,,,0.00,Wunderground v.1.15,2013-04-08 11:51:00,
2013-04-08 07:01:00,59.9,54.1,29.72,South,182,2.0,3.0,81,0.00,,,0.00,Wunderground v.1.15,2013-04-08 12:01:00,
2013-04-08 07:11:00,59.9,54.1,29.72,SSW,196,2.0,2.0,81,0.00,,,0.00,Wunderground v.1.15,2013-04-08 12:11:00,
2013-04-08 07:20:00,59.8,54.0,29.72,SE,146,2.0,3.0,81,0.00,,,0.00,Wunderground v.1.15,2013-04-08 12:20:00,
2013-04-08 07:26:00,59.9,54.1,29.72,SSE,153,3.0,6.0,81,0.00,,,0.00,Wunderground v.1.15,2013-04-08 12:26:00,
2013-04-08 07:36:00,59.8,54.3,29.73,SSE,153,2.0,4.0,82,0.00,,,0.00,Wunderground v.1.15,2013-04-08 12:36:00,
2013-04-08 07:45:00,59.6,54.1,29.74,South,191,1.0,4.0,82,0.00,,,0.00,Wunderground v.1.15,2013-04-08 12:45:00,
2013-04-08 07:55:00,59.6,54.4,29.74,SSE,152,1.0,2.0,83,0.00,,,0.00,Wunderground v.1.15,2013-04-08 12:55:00,
2013-04-08 08:06:00,59.9,54.7,29.75,South,183,1.0,4.0,83,0.00,,,0.00,Wunderground v.1.15,2013-04-08 13:06:00,
2013-04-08 08:16:00,60.4,54.9,29.75,South,183,2.0,2.0,82,0.00,,,0.00,Wunderground v.1.15,2013-04-08 13:16:00,
2013-04-08 08:26:00,61.2,55.7,29.75,West,271,2.0,2.0,82,0.00,,,0.00,Wunderground v.1.15,2013-04-08 13:26:00,
2013-04-08 08:35:00,61.8,55.6,29.75,SW,223,3.0,4.0,80,0.00,,,0.00,Wunderground v.1.15,2013-04-08 13:35:00,
2013-04-08 08:41:00,62.1,55.9,29.75,SE,145,3.0,3.0,80,0.00,,,0.00,Wunderground v.1.15,2013-04-08 13:41:00,
2013-04-08 08:50:00,62.4,55.8,29.75,SSW,205,4.0,4.0,79,0.00,,,0.00,Wunderground v.1.15,2013-04-08 13:50:00,
2013-04-08 08:56:00,62.4,55.8,29.75,SSE,166,3.0,4.0,79,0.00,,,0.00,Wunderground v.1.15,2013-04-08 13:56:00,
2013-04-08 09:06:00,62.6,56.0,29.75,SW,215,3.0,5.0,79,0.00,,,0.00,Wunderground v.1.15,2013-04-08 14:06:00,
2013-04-08 09:15:00,63.9,56.9,29.75,SSE,149,3.0,4.0,78,0.00,,,0.00,Wunderground v.1.15,2013-04-08 14:15:00,
2013-04-08 09:21:00,64.3,56.6,29.75,SSE,150,4.0,4.0,76,0.00,,,0.00,Wunderground v.1.15,2013-04-08 14:21:00,
2013-04-08 09:31:00,64.8,56.3,29.75,SE,140,5.0,11.0,74,0.00,,,0.00,Wunderground v.1.15,2013-04-08 14:31:00,
2013-04-08 09:41:00,65.5,56.6,29.75,SSW,194,5.0,5.0,73,0.00,,,0.00,Wunderground v.1.15,2013-04-08 14:41:00,
2013-04-08 09:51:00,66.1,56.4,29.75,ESE,123,5.0,6.0,71,0.00,,,0.00,Wunderground v.1.15,2013-04-08 14:51:00,
2013-04-08 10:00:00,66.4,56.7,29.76,SW,220,4.0,4.0,71,0.00,,,0.00,Wunderground v.1.15,2013-04-08 15:00:00,
2013-04-08 10:06:00,66.6,56.5,29.76,South,182,4.0,4.0,70,0.00,,,0.00,Wunderground v.1.15,2013-04-08 15:06:00,
2013-04-08 10:16:00,67.1,56.6,29.77,SSW,201,5.0,5.0,69,0.00,,,0.00,Wunderground v.1.15,2013-04-08 15:16:00,
2013-04-08 10:25:00,67.8,56.9,29.77,South,191,4.0,7.0,68,0.00,,,0.00,Wunderground v.1.15,2013-04-08 15:25:00,
2013-04-08 10:31:00,68.3,56.9,29.76,ESE,123,5.0,9.0,67,0.00,,,0.00,Wunderground v.1.15,2013-04-08 15:31:00,
2013-04-08 10:41:00,68.6,57.6,29.76,South,180,4.0,4.0,68,0.00,,,0.00,Wunderground v.1.15,2013-04-08 15:41:00,
2013-04-08 10:51:00,69.1,57.3,29.76,SSW,193,5.0,5.0,66,0.00,,,0.00,Wunderground v.1.15,2013-04-08 15:51:00,
2013-04-08 11:01:00,69.6,57.7,29.76,SSE,149,6.0,6.0,66,0.00,,,0.00,Wunderground v.1.15,2013-04-08 16:01:00,
2013-04-08 11:11:00,69.6,57.3,29.76,SSE,154,6.0,6.0,65,0.00,,,0.00,Wunderground v.1.15,2013-04-08 16:11:00,
2013-04-08 11:16:00,70.4,57.6,29.76,South,172,5.0,6.0,64,0.00,,,0.00,Wunderground v.1.15,2013-04-08 16:16:00,
2013-04-08 11:26:00,70.8,58.0,29.76,SW,217,5.0,7.0,64,0.00,,,0.00,Wunderground v.1.15,2013-04-08 16:26:00,
2013-04-08 11:36:00,70.4,58.1,29.76,SW,221,4.0,5.0,65,0.00,,,0.00,Wunderground v.1.15,2013-04-08 16:36:00,
2013-04-08 11:46:00,71.8,59.8,29.75,SW,229,4.0,9.0,66,0.00,,,0.00,Wunderground v.1.15,2013-04-08 16:46:00,
2013-04-08 11:56:00,72.1,58.8,29.75,SE,144,4.0,5.0,63,0.00,,,0.00,Wunderground v.1.15,2013-04-08 16:56:00,
2013-04-08 12:05:00,72.5,58.7,29.75,SSW,200,5.0,5.0,62,0.00,,,0.00,Wunderground v.1.15,2013-04-08 17:05:00,
2013-04-08 12:11:00,72.1,59.2,29.75,SE,134,5.0,10.0,64,0.00,,,0.00,Wunderground v.1.15,2013-04-08 17:11:00,
2013-04-08 12:20:00,72.3,58.5,29.74,South,171,5.0,5.0,62,0.00,,,0.00,Wunderground v.1.15,2013-04-08 17:20:00,
2013-04-08 12:26:00,72.5,58.7,29.74,SSW,194,5.0,7.0,62,0.00,,,0.00,Wunderground v.1.15,2013-04-08 17:26:00,
2013-04-08 12:36:00,72.5,58.7,29.74,SSW,202,5.0,9.0,62,0.00,,,0.00,Wunderground v.1.15,2013-04-08 17:36:00,
2013-04-08 12:45:00,73.9,58.2,29.73,South,187,4.0,7.0,58,0.00,,,0.00,Wunderground v.1.15,2013-04-08 17:45:00,
2013-04-08 12:51:00,74.0,58.8,29.73,SSE,150,6.0,10.0,59,0.00,,,0.00,Wunderground v.1.15,2013-04-08 17:51:00,
2013-04-08 13:01:00,73.9,58.2,29.72,SSW,206,6.0,6.0,58,0.00,,,0.00,Wunderground v.1.15,2013-04-08 18:01:00,
2013-04-08 13:10:00,73.9,58.7,29.72,South,190,4.0,6.0,59,0.00,,,0.00,Wunderground v.1.15,2013-04-08 18:10:00,
2013-04-08 13:21:00,74.2,58.5,29.73,SW,223,4.0,9.0,58,0.00,,,0.00,Wunderground v.1.15,2013-04-08 18:21:00,
2013-04-08 13:31:00,74.0,57.3,29.73,SW,235,5.0,5.0,56,0.00,,,0.00,Wunderground v.1.15,2013-04-08 18:31:00,
2013-04-08 13:41:00,74.2,59.4,29.73,SW,215,6.0,6.0,60,0.00,,,0.00,Wunderground v.1.15,2013-04-08 18:41:00,
2013-04-08 13:56:00,74.6,59.3,29.72,SW,223,4.0,6.0,59,0.00,,,0.00,Wunderground v.1.15,2013-04-08 18:56:00,
2013-04-08 14:06:00,72.8,58.6,29.72,SW,225,5.0,9.0,61,0.00,,,0.00,Wunderground v.1.15,2013-04-08 19:06:00,
2013-04-08 14:16:00,72.8,58.1,29.71,SSW,192,5.0,9.0,60,0.00,,,0.00,Wunderground v.1.15,2013-04-08 19:16:00,
2013-04-08 14:25:00,72.7,58.5,29.71,SSE,158,5.0,8.0,61,0.00,,,0.00,Wunderground v.1.15,2013-04-08 19:25:00,
2013-04-08 14:31:00,72.5,57.8,29.72,SSW,209,5.0,8.0,60,0.00,,,0.00,Wunderground v.1.15,2013-04-08 19:31:00,
2013-04-08 14:40:00,72.5,58.7,29.72,South,189,4.0,4.0,62,0.00,,,0.00,Wunderground v.1.15,2013-04-08 19:40:00,
2013-04-08 14:46:00,72.8,58.6,29.71,SSE,161,4.0,5.0,61,0.00,,,0.00,Wunderground v.1.15,2013-04-08 19:46:00,
2013-04-08 14:56:00,73.0,58.3,29.71,SSW,203,4.0,4.0,60,0.00,,,0.00,Wunderground v.1.15,2013-04-08 19:56:00,
2013-04-08 15:06:00,72.7,58.0,29.71,South,180,4.0,7.0,60,0.00,,,0.00,Wunderground v.1.15,2013-04-08 20:06:00,
2013-04-08 15:15:00,72.7,58.0,29.71,SSE,155,3.0,4.0,60,0.00,,,0.00,Wunderground v.1.15,2013-04-08 20:15:00,
2013-04-08 15:21:00,72.8,58.1,29.71,SSW,209,3.0,4.0,60,0.00,,,0.00,Wunderground v.1.15,2013-04-08 20:21:00,
2013-04-08 15:30:00,73.0,58.3,29.70,SW,230,4.0,4.0,60,0.00,,,0.00,Wunderground v.1.15,2013-04-08 20:30:00,
2013-04-08 15:36:00,73.0,57.8,29.70,SSE,167,4.0,4.0,59,0.00,,,0.00,Wunderground v.1.15,2013-04-08 20:36:00,
2013-04-08 15:50:00,73.5,58.8,29.70,South,185,4.0,4.0,60,0.00,,,0.00,Wunderground v.1.15,2013-04-08 20:50:00,
2013-04-08 16:05:00,74.4,59.6,29.70,South,180,4.0,7.0,60,0.00,,,0.00,Wunderground v.1.15,2013-04-08 21:05:00,
2013-04-08 16:16:00,74.0,59.7,29.69,South,189,5.0,5.0,61,0.00,,,0.00,Wunderground v.1.15,2013-04-08 21:16:00,
2013-04-08 16:25:00,73.7,58.9,29.69,SSE,168,3.0,3.0,60,0.00,,,0.00,Wunderground v.1.15,2013-04-08 21:25:00,
2013-04-08 16:31:00,73.5,58.8,29.70,SSW,198,3.0,3.0,60,0.00,,,0.00,Wunderground v.1.15,2013-04-08 21:31:00,
2013-04-08 16:41:00,73.0,58.8,29.70,SSW,198,4.0,4.0,61,0.00,,,0.00,Wunderground v.1.15,2013-04-08 21:41:00,
2013-04-08 16:51:00,72.5,58.3,29.70,SW,217,4.0,6.0,61,0.00,,,0.00,Wunderground v.1.15,2013-04-08 21:51:00,
2013-04-08 17:00:00,71.8,58.5,29.71,SW,219,5.0,12.0,63,0.00,,,0.00,Wunderground v.1.15,2013-04-08 22:00:00,
2013-04-08 17:06:00,71.5,58.2,29.71,SSW,210,5.0,12.0,63,0.00,,,0.00,Wunderground v.1.15,2013-04-08 22:06:00,
2013-04-08 17:16:00,70.8,58.0,29.72,SSW,196,4.0,6.0,64,0.00,,,0.00,Wunderground v.1.15,2013-04-08 22:16:00,
2013-04-08 17:26:00,70.4,57.6,29.72,South,185,5.0,5.0,64,0.00,,,0.00,Wunderground v.1.15,2013-04-08 22:26:00,
2013-04-08 17:36:00,69.8,57.9,29.72,SSE,164,4.0,10.0,66,0.00,,,0.00,Wunderground v.1.15,2013-04-08 22:36:00,
2013-04-08 17:46:00,69.1,57.7,29.73,WSW,246,5.0,5.0,67,0.00,,,0.00,Wunderground v.1.15,2013-04-08 22:46:00,
2013-04-08 17:56:00,68.4,57.4,29.73,South,174,5.0,6.0,68,0.00,,,0.00,Wunderground v.1.15,2013-04-08 22:56:00,
2013-04-08 18:06:00,67.9,57.4,29.73,South,184,5.0,12.0,69,0.00,,,0.00,Wunderground v.1.15,2013-04-08 23:06:00,
2013-04-08 18:15:00,67.6,57.5,29.73,SW,219,4.0,5.0,70,0.00,,,0.00,Wunderground v.1.15,2013-04-08 23:15:00,
2013-04-08 18:21:00,67.6,57.5,29.73,SE,141,4.0,4.0,70,0.00,,,0.00,Wunderground v.1.15,2013-04-08 23:21:00,
2013-04-08 18:31:00,67.4,57.3,29.74,SE,146,1.0,1.0,70,0.00,,,0.00,Wunderground v.1.15,2013-04-08 23:31:00,
2013-04-08 18:41:00,67.4,57.3,29.74,SSE,163,2.0,3.0,70,0.00,,,0.00,Wunderground v.1.15,2013-04-08 23:41:00,
2013-04-08 18:50:00,67.6,57.1,29.74,South,169,2.0,2.0,69,0.00,,,0.00,Wunderground v.1.15,2013-04-08 23:50:00,
2013-04-08 18:56:00,67.6,57.5,29.74,SSE,147,2.0,5.0,70,0.00,,,0.00,Wunderground v.1.15,2013-04-08 23:56:00,
2013-04-08 19:06:00,67.6,57.1,29.74,East,93,4.0,8.0,69,0.00,,,0.00,Wunderground v.1.15,2013-04-09 00:06:00,
2013-04-08 19:21:00,67.4,56.9,29.74,SE,139,4.0,4.0,69,0.00,,,0.00,Wunderground v.1.15,2013-04-09 00:21:00,
2013-04-08 19:31:00,67.4,56.9,29.74,South,174,4.0,4.0,69,0.00,,,0.00,Wunderground v.1.15,2013-04-09 00:31:00,
2013-04-08 19:40:00,67.3,57.2,29.74,SSE,161,4.0,8.0,70,0.00,,,0.00,Wunderground v.1.15,2013-04-09 00:40:00,
2013-04-08 19:51:00,67.1,57.0,29.74,South,173,5.0,8.0,70,0.00,,,0.00,Wunderground v.1.15,2013-04-09 00:51:00,
2013-04-08 20:01:00,67.1,57.0,29.74,ESE,117,4.0,5.0,70,0.00,,,0.00,Wunderground v.1.15,2013-04-09 01:01:00,
2013-04-08 20:11:00,66.8,56.7,29.74,SSE,159,4.0,7.0,70,0.00,,,0.00,Wunderground v.1.15,2013-04-09 01:11:00,
2013-04-08 20:21:00,66.6,56.9,29.73,ESE,116,4.0,9.0,71,0.00,,,0.00,Wunderground v.1.15,2013-04-09 01:21:00,
2013-04-08 20:30:00,66.3,56.6,29.74,ESE,115,3.0,9.0,71,0.00,,,0.00,Wunderground v.1.15,2013-04-09 01:30:00,
2013-04-08 20:36:00,66.1,56.4,29.74,SE,142,4.0,4.0,71,0.00,,,0.00,Wunderground v.1.15,2013-04-09 01:36:00,
2013-04-08 20:45:00,66.0,56.7,29.73,SE,144,4.0,6.0,72,0.00,,,0.00,Wunderground v.1.15,2013-04-09 01:45:00,
2013-04-08 20:51:00,65.8,56.5,29.73,SSE,153,4.0,5.0,72,0.00,,,0.00,Wunderground v.1.15,2013-04-09 01:51:00,
2013-04-08 21:01:00,65.6,56.3,29.74,SE,130,4.0,5.0,72,0.00,,,0.00,Wunderground v.1.15,2013-04-09 02:01:00,
2013-04-08 21:11:00,65.5,56.2,29.74,SSE,155,4.0,5.0,72,0.00,,,0.00,Wunderground v.1.15,2013-04-09 02:11:00,
2013-04-08 21:21:00,65.3,56.4,29.75,South,170,4.0,9.0,73,0.00,,,0.00,Wunderground v.1.15,2013-04-09 02:21:00,
2013-04-08 21:30:00,65.2,56.3,29.75,SSE,154,4.0,4.0,73,0.00,,,0.00,Wunderground v.1.15,2013-04-09 02:30:00,
2013-04-08 21:36:00,65.2,56.3,29.75,SSE,153,4.0,6.0,73,0.00,,,0.00,Wunderground v.1.15,2013-04-09 02:36:00,
2013-04-08 21:45:00,65.2,56.3,29.75,SE,146,4.0,9.0,73,0.00,,,0.00,Wunderground v.1.15,2013-04-09 02:45:00,
2013-04-08 21:51:00,65.0,56.1,29.75,SSE,150,4.0,4.0,73,0.00,,,0.00,Wunderground v.1.15,2013-04-09 02:51:00,
2013-04-08 22:00:00,65.0,56.1,29.75,SE,140,3.0,3.0,73,0.00,,,0.00,Wunderground v.1.15,2013-04-09 03:00:00,
2013-04-08 22:06:00,65.0,56.1,29.75,SSE,155,3.0,3.0,73,0.00,,,0.00,Wunderground v.1.15,2013-04-09 03:06:00,
2013-04-08 22:16:00,65.0,56.1,29.74,ESE,122,3.0,6.0,73,0.00,,,0.00,Wunderground v.1.15,2013-04-09 03:16:00,
2013-04-08 22:26:00,65.2,56.3,29.74,SE,132,4.0,9.0,73,0.00,,,0.00,Wunderground v.1.15,2013-04-09 03:26:00,
2013-04-08 22:31:00,65.2,56.3,29.74,SE,142,4.0,4.0,73,0.00,,,0.00,Wunderground v.1.15,2013-04-09 03:31:00,
2013-04-08 22:41:00,65.3,56.4,29.74,SE,136,5.0,5.0,73,0.00,,,0.00,Wunderground v.1.15,2013-04-09 03:41:00,
2013-04-08 22:46:00,65.3,56.4,29.73,South,169,5.0,5.0,73,0.00,,,0.00,Wunderground v.1.15,2013-04-09 03:46:00,
2013-04-08 22:56:00,65.2,56.7,29.73,ESE,117,4.0,4.0,74,0.00,,,0.00,Wunderground v.1.15,2013-04-09 03:56:00,
2013-04-08 23:00:00,65.2,56.7,29.73,SE,145,4.0,4.0,74,0.00,,,0.00,Wunderground v.1.15,2013-04-09 04:00:00,
2013-04-08 23:06:00,65.2,56.7,29.73,SSE,151,4.0,6.0,74,0.00,,,0.00,Wunderground v.1.15,2013-04-09 04:06:00,
2013-04-08 23:16:00,65.2,56.7,29.72,SE,125,5.0,9.0,74,0.00,,,0.00,Wunderground v.1.15,2013-04-09 04:16:00,
2013-04-08 23:20:00,65.3,56.8,29.72,SE,139,4.0,7.0,74,0.00,,,0.00,Wunderground v.1.15,2013-04-09 04:20:00,
2013-04-08 23:26:00,65.2,56.7,29.72,SSE,158,4.0,7.0,74,0.00,,,0.00,Wunderground v.1.15,2013-04-09 04:26:00,
2013-04-08 23:36:00,65.0,56.9,29.72,SE,130,3.0,7.0,75,0.00,,,0.00,Wunderground v.1.15,2013-04-09 04:36:00,
2013-04-08 23:45:00,64.8,56.7,29.72,SSE,147,3.0,3.0,75,0.00,,,0.00,Wunderground v.1.15,2013-04-09 04:45:00,
2013-04-08 23:55:00,64.8,56.7,29.72,ESE,112,3.0,4.0,75,0.00,,,0.00,Wunderground v.1.15,2013-04-09 04:55:00,